Regional Weather Roundup
Issued by NWS Sioux Falls, SD

Home | Current Version | Previous Version | Text Only | Print | Product List | Glossary Off
Versions: 1 2 3 4 5 6 7 8 9 10 11 12 13 14 15 16 17 18 19 20 21 22 23 24 25 26 27 28 29 30 31 32 33 34 35 36 37 38 39 40 41 42 43 44 45 46 47 48 49 50

000
ASUS43 KFSD 261910
RWRFSD

WEATHER ROUNDUP FOR SE SOUTH DAKOTA/SW MINNESOTA/NW IOWA
NATIONAL WEATHER SERVICE SIOUX FALLS SD
100 PM CST WED NOV 26 2014

NOTE: "FAIR" INDICATES FEW OR NO CLOUDS BELOW 12,000 FEET WITH NO
SIGNIFICANT WEATHER AND OR OBSTRUCTIONS TO VISIBILITY.


SDZ038>040-050-052>070-262000-
SOUTHEAST SOUTH DAKOTA

CITY           SKY/WX    TMP DP  RH WIND       PRES   REMARKS
CHAMBERLAIN    CLOUDY    20   8  59 N10       30.33F WCI   9
HURON          SUNNY     12   4  70 N13       30.36R WCI  -3
MADISON        FLURRIES  16  14  93 N16       30.24R WCI   0
MITCHELL       PTSUNNY   15   9  76 NW17      30.34R WCI  -1
SIOUX FALLS    MOSUNNY   21  15  78 N17       30.23R WCI   7
WINNER         MOCLDY    24  14  65 N14       30.32S WCI  12
YANKTON        CLOUDY    19  14  79 NW18G26   30.28R WCI   4
$$

MNZ071-072-080-081-089-090-097-098-262000-
SOUTHWEST MINNESOTA

CITY           SKY/WX    TMP DP  RH WIND       PRES   REMARKS
FAIRMONT       CLOUDY    25  19  80 N15       30.13R VSB 1   WCI  12
JACKSON        LGT SNOW  25  21  86 N15G25    30.14R WCI  12
LUVERNE        MOSUNNY   23  18  80 N12G22    30.21R WCI  12
MARSHALL       CLOUDY    14   7  73 N20       30.24R WCI  -3
MONTEVIDEO     CLOUDY    14  10  85 N16       30.28R WCI  -2
PIPESTONE      CLOUDY    18  12  79 N10G18    30.21R WCI   6
REDWOOD FALLS  CLOUDY    22  16  78 NW15G21   30.22R WCI   9
TRACY          CLOUDY    16  12  86 NW16G25   30.22R FOG     WCI   0
WINDOM         CLOUDY    19  18  93 NW21      30.17R FOG     WCI   3
WORTHINGTON    CLOUDY    18  14  86 N22       30.17R WCI   0
$$

IAZ001>003-012>014-020>022-031-032-NEZ013-014-SDZ071-262000-
NORTHWEST IOWA

CITY           SKY/WX    TMP DP  RH WIND       PRES   REMARKS
CHEROKEE       CLOUDY    26  22  85 N21G28    30.13R FOG     WCI  12
DENISON        LGT SNOW  28  27  93 N18G26    30.07R WCI  16
ESTHERVILLE    SNOW      23  21  92 N20       30.12R VSB 1/2 WCI   8
LE MARS        PTSUNNY   25  21  86 N17G28    30.19R WCI  11
ORANGE CITY    MOSUNNY   27  21  80 N15       30.17R WCI  15
SHELDON        MIX PCPN  23  19  86 N22       30.16R WCI   8
SIOUX CITY     CLOUDY    28  21  75 N24G31    30.19R WCI  14
SPENCER        LGT SNOW  26  20  77 N23G29    30.13R WCI  11
STORM LAKE     MIX PCPN  25  21  86 N22G30    30.10R WCI  10
$$

ABBREVIATIONS USED IN REMARKS
   TC - TEMPERATURE IN CELSIUS
  WCI - WIND CHILL INDEX
   HX - HEAT INDEX
  VSB - VISIBILITY




USA.gov is the U.S. government's official web portal to all federal, state and local government web resources and services.